OpenBCM V1.13 (Linux)

Packet Radio Mailbox

DB0FHN

[JN59NK Nuernberg]

 Login: GUEST





  
I0OJJ  > KEPS     09.02.25 06:03l 336 Lines 15903 Bytes #999 (0) @ AMSAT
BID : ORB25040.1
Read: DJ6UX GUEST
Subj: 2Line Orbital Elements 25040.AMSAT
Path: DB0FHN<DB0LHR<OK1TOR<OE2XZR<OE6XPE<DB0ERF<IZ3LSV<I0OJJ<I0OJJ
Sent: 250209/0345z @:I0OJJ.ITA.EU [Rome] obcm1.08-6-g5b69

>From i0ojj%i0ojj.ita.eu@i0ojj.ampr.org Sun Feb  9 04:45:08 2025
Received: from i0ojj.ampr.org by i0ojj.ampr.org (JNOS2.0p.6) with SMTP
	id AA17020569 ; Sun, 09 Feb 2025 04:45:08 +0100
Message-Id: <ORB25040.1@i0ojj.bbs>
>From: i0ojj@i0ojj.ita.eu
X-JNOS-User-Port: Uplink   (I0OJJ-2 on port hub)  ->  Sending message

From: I0OJJ @ I0OJJ.ITA.EU (Gustavo)
To:   KEPS @ AMSAT
X-Info: This message was generated automatically


QST de W1STR

AMSAT Orbital Elements for Amateur Satellites in TLE Format
>From Orbital Analysis Office
New England Sci-Tech STEM Education Center
Natick, MA February 09, 2025
To all radio amateurs


These element sets describe the orbits of various satellites 
in use by the amateur radio community. For details see:
www.amsat.org/keplerian-elements-formats/

A daily update of element sets is available at:
www.amsat.org/tle/daily-bulletin.txt
or without bulletin text:
www.amsat.org/tle/dailytle.txt


AO-07
1 07530U 74089B   25039.60515112 -.00000013  00000-0  21021-3 0  9997
2 07530 101.9933  42.5820 0012161 354.4240 127.8681 12.53685907298667
UO-11
1 14781U 84021B   25039.84829440  .00003426  00000-0  37284-3 0  9996
2 14781  97.7381   8.7762 0008544  27.2149 332.9514 14.88654041204671
AO-27
1 22825U 93061C   25039.44464070  .00000260  00000-0  11659-3 0  9999
2 22825  98.7555 100.3037 0009455 106.4800 253.7422 14.30724895636391
FO-29
1 24278U 96046B   25039.49686386  .00000015  00000-0  54552-4 0  9998
2 24278  98.5876 309.2536 0349084 296.3384  60.2301 13.53236503406394
NOAA-15
1 25338U 98030A   25039.78383294  .00000379  00000-0  17388-3 0  9993
2 25338  98.5488  67.7494 0010115 359.1844   0.9319 14.26878556391179
GO-32
1 25397U 98043D   25039.51069681  .00000252  00000-0  12945-3 0  9998
2 25397  98.9562  16.1968 0001373 150.8889 209.2366 14.24250009381277
ISS
1 25544U 98067A   25039.69921259  .00015113  00000-0  27293-3 0  9999
2 25544  51.6384 223.4294 0003782 289.7310 171.4499 15.49927739495239
NO-44
1 26931U 01043C   25039.51086191  .00000409  00000-0  18447-3 0  9999
2 26931  67.0500  80.8420 0006064 263.5409  96.5003 14.31612246219777
SO-50
1 27607U 02058C   25039.84391298  .00002706  00000-0  36231-3 0  9993
2 27607  64.5525 213.0377 0041740   4.7862 355.3633 14.80916468191553
CO-55
1 27844U 03031E   25038.97463011  .00000720  00000-0  33361-3 0  9999
2 27844  98.6788  48.8129 0009763 174.1168 186.0127 14.23808683121336
CO-57
1 27848U 03031J   25039.49994423  .00000653  00000-0  30808-3 0  9995
2 27848  98.6814  49.4262 0009364 189.3912 170.7092 14.23171790121149
RS-22
1 27939U 03042A   25039.82626418  .00002505  00000-0  40957-3 0  9995
2 27939  98.3126 206.4863 0012194  36.3904  70.9484 14.71730541143061
NOAA-18
1 28654U 05018A   25039.79631146  .00000382  00000-0  22591-3 0  9990
2 28654  98.8525 120.6002 0015158 111.9074 248.3712 14.13510342 16680
CO-58
1 28895U 05043F   25039.61425512  .00003485  00000-0  58710-3 0  9993
2 28895  98.2276 182.6612 0014416 333.4429  26.6036 14.70116358 29165
CO-65
1 32785U 08021C   25039.40622588  .00008653  00000-0  66279-3 0  9995
2 32785  97.7663   9.9695 0008820 263.8115  96.2105 15.02072602910870
AAUSAT2
1 32788U 08021F   25039.52704246  .00102312  00000-0  20289-2 0  9990
2 32788  97.6051  30.9121 0007397  83.4421 276.7670 15.46627974914541
CO-66
1 32791U 08021J   25039.42648526  .00016899  00000-0  94137-3 0  9999
2 32791  97.7160  17.2672 0003337 189.3674 170.7495 15.13683860912133
RS-30
1 32953U 08025A   25039.76348617  .00000026  00000-0  11809-3 0  9998
2 32953  82.5044 302.3396 0019075 311.8100  48.1350 12.43158425758522
NOAA-19
1 33591U 09005A   25039.78308125  .00000339  00000-0  20522-3 0  9997
2 33591  99.0149 103.7320 0013416 348.7901  11.2970 14.13280454825049
SRMSAT
1 37841U 11058D   25039.41541920  .00000653  00000-0  21120-3 0  9996
2 37841  19.9708 167.7283 0011669 171.6861 229.6041 14.11356816687973
ZACUBE-1
1 39417U 13066B   25039.83463625  .00009131  00000-0  83261-3 0  9993
2 39417  97.7653 357.7729 0048349  94.9621 265.7121 14.94430749606867
Delfi-N3xt
1 39428U 13066N   25039.51264467  .00013943  00000-0  15104-2 0  9999
2 39428  97.8377 318.7522 0091064  39.5160 321.2648 14.85294585601083
GOMX-1
1 39430U 13066Q   25039.84889292  .00004364  00000-0  69337-3 0  9992
2 39430  97.7007 265.8603 0133393 218.2336 140.9353 14.66751992597701
LO-74
1 39440U 13066AA  25039.59234047  .00007202  00000-0  76097-3 0  9992
2 39440  97.8373 345.2378 0063065 217.5012 142.1797 14.88061661603437
AO-73
1 39444U 13066AE  25039.81489831  .00012674  00000-0  10279-2 0  9992
2 39444  97.7482   1.7657 0043522  72.1713 288.4250 14.99052618606068
DTUSAT-2
1 40030U 14033W   25039.44208794  .00010695  00000-0  75262-3 0  9991
2 40030  98.0413   5.7651 0011811 106.6271 253.6252 15.05197910578152
EO-80
1 40032U 14033Y   25039.40263110  .00010211  00000-0  71739-3 0  9991
2 40032  98.0289   5.5429 0010756  58.1435 302.0835 15.05280608578126
XW-2C
1 40906U 15049H   25039.81995916  .00831139  35631-3  12244-2 0  9996
2 40906  97.4428  74.8978 0004010 166.5228 193.6160 16.05083442521370
LILACSAT-2
1 40908U 15049K   25039.77558849  .00015807  00000-0  47206-3 0  9995
2 40908  97.5168  57.4882 0008634 224.8480 135.2065 15.34660700519674
IO-86
1 40931U 15052B   25038.81889873  .00001817  00000-0  15548-3 0  9993
2 40931   6.0001 108.1159 0012838 187.7041 172.2889 14.78568669506492
Horyu-4
1 41340U 16012D   25039.53058191  .00029836  00000-0  10163-2 0  9994
2 41340  30.9967 221.5854 0005976 247.6181 112.3829 15.29183277494199
Lapan A3
1 41603U 16040E   25039.83886638  .00005800  00000-0  21177-3 0  9998
2 41603  97.1394  49.2808 0010768 350.5827   9.5210 15.28436357479339
CAS-2T
1 41847U 16066G   25039.56543947  .00003557  00000-0  51614-3 0  9995
2 41847  98.4338 115.0641 0348333 184.2735 175.5462 14.42884907433561
CAS-4B
1 42759U 17034B   25039.84006432  .00046556  00000-0  90101-3 0  9998
2 42759  43.0125 312.5873 0016195 173.9495 186.1563 15.46858303423803
CAS-4A
1 42761U 17034D   25039.80711399  .00048109  00000-0  91611-3 0  9995
2 42761  43.0164 310.7501 0017520 180.1587 179.9269 15.47288089423815
TechnoSat
1 42829U 17042E   25039.72310824  .00005386  00000-0  43401-3 0  9992
2 42829  97.3896 214.2884 0012200 345.3181  14.7687 15.00249431412591
AO-91
1 43017U 17073E   25039.58251692  .00014643  00000-0  79708-3 0  9992
2 43017  97.5498 273.5067 0181520 218.1499 140.6763 15.01445443391034
S-Net D
1 43186U 18014G   25039.63310208  .00008037  00000-0  50251-3 0  9992
2 43186  97.5738 303.8698 0007681 284.4323  75.6053 15.09676471384117
S-Net B
1 43187U 18014H   25039.63709133  .00008026  00000-0  50197-3 0  9999
2 43187  97.5744 303.8394 0008316 277.9071  82.1214 15.09663047384118
S-Net A
1 43188U 18014J   25039.63386512  .00007934  00000-0  49603-3 0  9999
2 43188  97.5750 303.9715 0008244 278.6019  81.4276 15.09680571384115
S-Net C
1 43189U 18014K   25039.30781039  .00007113  00000-0  44531-3 0  9991
2 43189  97.5770 303.6423 0009743 270.7957  89.2156 15.09655163382615
Ten-Koh
1 43677U 18084G   25039.72747349  .00005431  00000-0  44910-3 0  9994
2 43677  98.0828 207.2075 0011373 310.6020  49.4212 14.99320697342128
PO-101
1 43678U 18084H   25039.80983910  .00003378  00000-0  29690-3 0  9996
2 43678  98.0910 211.4641 0007932 334.5027  25.5801 14.97258840342302
QO-100
1 43700U 18090A   25039.18925656  .00000138  00000-0  00000-0 0  9995
2 43700   0.0128 110.2552 0001290 210.0608 272.0771  1.00271169 22728
MinXSS-2
1 43758U 18099A   25039.57622283  .00021018  00000-0  97851-3 0  9993
2 43758  97.5211 105.6023 0012712 217.6002 142.4345 15.19877111338550
AO-95
1 43770U 18099N   25039.56531473  .00014194  00000-0  79287-3 0  9996
2 43770  97.5120  99.1662 0010408 272.3686  87.6354 15.13578700338225
RANGE-A
1 43773U 18099R   25039.38893698  .00006429  00000-0  43146-3 0  9996
2 43773  97.4690  91.3344 0010314 244.2080 115.8085 15.07116126337959
MOVE-II
1 43780U 18099Y   25039.42476093  .00063426  00000-0  15321-2 0  9998
2 43780  97.4853 109.4867 0003951 224.8154 135.2774 15.40944878338967
SNUSat 2
1 43782U 18099AA  25039.39952239  .00009075  00000-0  53825-3 0  9999
2 43782  97.4804  96.6882 0012185 207.1149 152.9447 15.11518111338177
SnugLite
1 43784U 18099AC  25039.68639892  .00014119  00000-0  78305-3 0  9995
2 43784  97.4621  96.3355 0003193 197.1993 162.9130 15.13876249338320
ITASat 1
1 43786U 18099AE  25039.41944490  .00009255  00000-0  56747-3 0  9992
2 43786  97.4775  96.5372 0013804 263.8318  96.1339 15.10286614338153
EAGLET 1
1 43790U 18099AJ  25039.40806795  .00006000  00000-0  40155-3 0  9992
2 43790  97.4969  96.8151 0011110 241.2519 118.7593 15.07244160337802
ESEO
1 43792U 18099AL  25039.57395215  .00002844  00000-0  22261-3 0  9992
2 43792  97.4624  91.7911 0010016 201.4845 158.5961 15.01761721337659
CSIM
1 43793U 18099AM  25039.15150541  .00068155  00000-0  16466-2 0  9994
2 43793  97.5032 111.1681 0007419 203.1959 156.8953 15.40899186338768
JO-97
1 43803U 18099AX  25039.62642416  .00016889  00000-0  87125-3 0  9993
2 43803  97.4868 100.0289 0007714 199.6071 160.4866 15.16388003338419
Suomi 100
1 43804U 18099AY  25039.40495805  .00012401  00000-0  67339-3 0  9999
2 43804  97.4935  99.3920 0012877 204.3590 155.7035 15.14596660338337
ISAT
1 43879U 18111D   25039.50015998  .00027033  00000-0  11548-2 0  9995
2 43879  97.6044 311.7803 0007776 261.2986  98.7369 15.22817311335225
UWE-4
1 43880U 18111E   25039.47859971  .00019413  00000-0  89610-3 0  9999
2 43880  97.5981 310.9581 0011173 275.3828  84.6132 15.20207203335196
Sparrow
1 43881U 18111F   25039.56616268  .00028491  00000-0  11860-2 0  9997
2 43881  97.6167 314.3102 0006137 316.4066  43.6685 15.23694045335315
